Stevensville, MD

1:46 AM EDT on May 28, 2018 (GMT -0400)
Stevensville

Weather History for KW29 - December, 2012

Change the Weather History Date:

Friday, December 7, 2012

  Actual Average (KESN) Record (KESN)
Temperature  
Mean Temperature 42 °F -  
Max Temperature 48 °F 54 °F 72 °F (1951)
Min Temperature 35 °F 32 °F 19 °F (2007)
Degree Days  
Heating Degree Days 24    
Moisture  
Dew Point 40 °F    
Average Humidity 89    
Maximum Humidity 100    
Minimum Humidity 75    
Precipitation  
Precipitation 0.00 in - - ()
Sea Level Pressure  
Sea Level Pressure 30.13 in    
Wind  
Wind Speed 5 mph (SSE)    
Max Wind Speed 9 mph    
Max Gust Speed -    
Visibility 9 miles    
Events      
Averages and records for this station are not official NWS values.
T = Trace of Precipitation, MM = Missing Value Source: NWS Daily Summary

Daily Weather History Graph

Daily Weather History Graph

Search for Another Location

Airport or City:

Astronomy

Dec. 07, 2012 Rise Set
Actual Time 7:11 AM EST 4:42 PM EST
Civil Twilight 6:41 AM EST 5:12 PM EST
Nautical Twilight 6:08 AM EST 5:45 PM EST
Astronomical Twilight 5:35 AM EST 6:18 PM EST
Moon 12:30 AM EST (12/7) 12:36 PM EST (12/7)
Length of Visible Light 10h 31m
Length of Day
9h 31m
Last Quarter, 39% of the Moon is Illuminated
Dec 7
Last Quarter
Dec 13
New
Dec 20
First Quarter
Dec 28
Full
Jan 4
Last Quarter

Hourly Weather History & Observations

Time (EST) Temp. Windchill Dew Point Humidity Pressure Visibility Wind Dir Wind Speed Gust Speed Precip Events Conditions
12:14 AM 35.6 °F 29.9 °F 32.0 °F 87% 30.28 in 10.0 mi SE 6.9 mph - N/A   Clear
12:35 AM 35.6 °F 29.9 °F 32.0 °F 87% 30.26 in 10.0 mi SE 6.9 mph - N/A   Clear
12:57 AM 35.6 °F 30.7 °F 32.0 °F 87% 30.26 in 10.0 mi SE 5.8 mph - N/A   Clear
1:18 AM 35.6 °F 29.9 °F 32.0 °F 87% 30.25 in 10.0 mi SE 6.9 mph - N/A   Clear
1:40 AM 37.4 °F 33.8 °F 32.0 °F 81% 30.25 in 10.0 mi SE 4.6 mph - N/A   Scattered Clouds
2:01 AM 37.4 °F 33.8 °F 32.0 °F 81% 30.24 in 10.0 mi SE 4.6 mph - N/A   Mostly Cloudy
2:22 AM 37.4 °F 33.8 °F 33.8 °F 87% 30.23 in 10.0 mi SE 4.6 mph - N/A   Scattered Clouds
2:43 AM 37.4 °F 32.8 °F 33.8 °F 87% 30.23 in 10.0 mi SE 5.8 mph - N/A   Clear
3:05 AM 37.4 °F 33.8 °F 33.8 °F 87% 30.23 in 10.0 mi SE 4.6 mph - N/A   Scattered Clouds
3:26 AM 37.4 °F 33.8 °F 33.8 °F 87% 30.22 in 10.0 mi SSE 4.6 mph - N/A   Scattered Clouds
3:47 AM 37.4 °F 33.8 °F 33.8 °F 87% 30.20 in 10.0 mi SE 4.6 mph - N/A   Mostly Cloudy
4:09 AM 37.4 °F 33.8 °F 33.8 °F 87% 30.21 in 10.0 mi SE 4.6 mph - N/A   Mostly Cloudy
4:30 AM 37.4 °F - 32.0 °F 81% 30.21 in 10.0 mi Calm Calm - N/A   Scattered Clouds
4:51 AM 37.4 °F 34.9 °F 32.0 °F 81% 30.20 in 10.0 mi East 3.5 mph - N/A   Scattered Clouds
5:12 AM 37.4 °F 33.8 °F 33.8 °F 87% 30.20 in 10.0 mi SE 4.6 mph - N/A   Scattered Clouds
5:34 AM 39.2 °F 35.9 °F 33.8 °F 81% 30.19 in 10.0 mi ESE 4.6 mph - N/A   Overcast
5:55 AM 39.2 °F 35.0 °F 33.8 °F 81% 30.19 in 10.0 mi SE 5.8 mph - N/A   Overcast
6:16 AM 39.2 °F 34.2 °F 32.0 °F 75% 30.20 in 10.0 mi SE 6.9 mph - N/A   Overcast
6:38 AM 39.2 °F 35.9 °F 33.8 °F 81% 30.20 in 10.0 mi SSE 4.6 mph - N/A   Overcast
6:59 AM 41.0 °F 38.0 °F 33.8 °F 76% 30.20 in 10.0 mi SSE 4.6 mph - N/A   Overcast
7:20 AM 41.0 °F 38.0 °F 33.8 °F 76% 30.20 in 10.0 mi South 4.6 mph - N/A   Overcast
7:41 AM 41.0 °F 38.0 °F 35.6 °F 81% 30.20 in 10.0 mi SSE 4.6 mph - N/A   Overcast
8:03 AM 41.0 °F 37.1 °F 35.6 °F 81% 30.19 in 10.0 mi SSE 5.8 mph - N/A   Overcast
8:24 AM 41.0 °F 37.1 °F 37.4 °F 87% 30.19 in 7.0 mi SSE 5.8 mph - N/A   Overcast
8:45 AM 41.0 °F 37.1 °F 39.2 °F 93% 30.19 in 7.0 mi SSE 5.8 mph - N/A   Overcast
9:06 AM 41.0 °F 37.1 °F 39.2 °F 93% 30.19 in 10.0 mi SSE 5.8 mph - N/A   Overcast
9:49 AM 41.0 °F 38.0 °F 41.0 °F 100% 30.19 in 10.0 mi SSE 4.6 mph - N/A   Overcast
10:10 AM 41.0 °F 39.0 °F 41.0 °F 100% 30.19 in 10.0 mi SSE 3.5 mph - N/A   Overcast
10:31 AM 42.8 °F 41.1 °F 41.0 °F 93% 30.19 in 10.0 mi SSE 3.5 mph - N/A   Overcast
11:14 AM 44.6 °F 40.7 °F 42.8 °F 93% 30.15 in 10.0 mi SSE 6.9 mph - N/A   Overcast
11:35 AM 44.6 °F 39.7 °F 42.8 °F 93% 30.14 in 10.0 mi SSE 9.2 mph - N/A   Overcast
11:56 AM 44.6 °F 40.2 °F 42.8 °F 93% 30.12 in 10.0 mi South 8.1 mph - N/A   Overcast
12:17 PM 46.4 °F 42.9 °F 42.8 °F 87% 30.11 in 10.0 mi SSE 6.9 mph - N/A   Overcast
12:39 PM 46.4 °F 42.4 °F 42.8 °F 87% 30.11 in 10.0 mi South 8.1 mph - N/A   Overcast
1:00 PM 46.4 °F 42.9 °F 42.8 °F 87% 30.10 in 10.0 mi South 6.9 mph - N/A   Mostly Cloudy
1:21 PM 46.4 °F 42.9 °F 42.8 °F 87% 30.09 in 10.0 mi South 6.9 mph - N/A   Mostly Cloudy
1:42 PM 46.4 °F 42.4 °F 42.8 °F 87% 30.08 in 10.0 mi SSE 8.1 mph - N/A   Mostly Cloudy
2:04 PM 46.4 °F 43.5 °F 42.8 °F 87% 30.08 in 10.0 mi South 5.8 mph - N/A   Scattered Clouds
2:25 PM 46.4 °F 43.5 °F 42.8 °F 87% 30.08 in 10.0 mi SSE 5.8 mph - N/A   Scattered Clouds
2:46 PM 46.4 °F 42.9 °F 42.8 °F 87% 30.07 in 10.0 mi SSE 6.9 mph - N/A   Scattered Clouds
3:07 PM 46.4 °F 42.4 °F 42.8 °F 87% 30.07 in 10.0 mi SSE 8.1 mph - N/A   Scattered Clouds
3:29 PM 46.4 °F 42.4 °F 44.6 °F 93% 30.07 in 10.0 mi SSE 8.1 mph - N/A   Mostly Cloudy
3:50 PM 46.4 °F 42.9 °F 44.6 °F 93% 30.07 in 10.0 mi SSE 6.9 mph - N/A   Overcast
4:11 PM 46.4 °F 44.3 °F 44.6 °F 93% 30.06 in 10.0 mi SSE 4.6 mph - N/A   Mostly Cloudy
4:32 PM 48.2 °F - 42.8 °F 82% 30.06 in 10.0 mi South 6.9 mph - N/A   Mostly Cloudy
4:54 PM 48.2 °F - 42.8 °F 82% 30.07 in 10.0 mi SSE 5.8 mph - N/A   Mostly Cloudy
5:15 PM 48.2 °F - 44.6 °F 87% 30.07 in 10.0 mi SSE 4.6 mph - N/A   Overcast
5:36 PM 48.2 °F - 44.6 °F 87% 30.06 in 10.0 mi SSE 3.5 mph - N/A   Overcast
5:57 PM 48.2 °F - 44.6 °F 87% 30.07 in 10.0 mi Calm Calm - N/A   Overcast
6:19 PM 48.2 °F - 44.6 °F 87% 30.06 in 10.0 mi SE 5.8 mph - N/A   Overcast
6:40 PM 48.2 °F - 44.6 °F 87% 30.06 in 10.0 mi SSE 3.5 mph - N/A   Mostly Cloudy
7:01 PM 46.4 °F 45.2 °F 44.6 °F 93% 30.05 in 10.0 mi SSE 3.5 mph - N/A   Overcast
7:22 PM 46.4 °F 45.2 °F 44.6 °F 93% 30.05 in 10.0 mi SSE 3.5 mph - N/A   Overcast
7:44 PM 48.2 °F - 44.6 °F 87% 30.05 in 10.0 mi SE 3.5 mph - N/A   Overcast
8:26 PM 46.4 °F - 46.4 °F 100% 30.05 in 10.0 mi Calm Calm - N/A   Overcast
8:47 PM 46.4 °F 45.2 °F 46.4 °F 100% 30.04 in 5.0 mi SE 3.5 mph - N/A   Overcast
9:09 PM 46.4 °F 45.2 °F 46.4 °F 100% 30.03 in 7.0 mi SE 3.5 mph - N/A   Overcast
9:30 PM 46.4 °F - 46.4 °F 100% 30.03 in 4.0 mi Calm Calm - N/A   Overcast
9:51 PM 46.4 °F - 46.4 °F 100% 30.02 in 1.8 mi Calm Calm - N/A   Overcast
10:55 PM 46.4 °F - 46.4 °F 100% 30.01 in 1.0 mi Calm Calm - N/A   Overcast
11:16 PM 46.4 °F - 46.4 °F 100% 30.00 in 1.0 mi Calm Calm - N/A   Overcast
11:37 PM 46.4 °F 42.9 °F 46.4 °F 100% 29.99 in 2.5 mi ESE 6.9 mph - N/A   Overcast
11:59 PM 46.4 °F 44.3 °F 46.4 °F 100% 29.97 in 2.0 mi SE 4.6 mph - N/A   Overcast